Location: Bambrugge
(50.9212°N, 3.9299°E)
Time: 21:44:08
(UTC+00:00)

Cosmos 2278 - Pass Details

Date: 23 May 2024
Orbit: 837 x 853 km, 71.1° (Epoch: 14 June)

Event Time Altitude Azimuth Distance (km) Brightness Sun altitude
Rises 00:32:15 0° 331° (NNW) 3,432 7.6 -17.6°
Reaches altitude 10° 00:34:45 10° 335° (NNW) 2,493 6.9 -17.5°
Maximum altitude 00:40:27 63° 56° (NE) 954 4.1 -17.3°
Drops below altitude 10° 00:46:06 10° 137° (SE) 2,480 5.8 -17.0°
Enters shadow 00:46:55 - 139° (SE) 2,784 6.1 -17.0°
